Hourly Data Report for January 21, 2022

ST. JOHN'S INTL A
NEWFOUNDLAND
Current Station Operator: NAVCAN

47°37'07.000" N
52°45'09.000" W
140.50 m
8403505
71801
YYT

Download Data

Hourly Data (January 2022)
Hourly Data Report for January 21, 2022
TIME
LST
Temp Definition
°C
Dew Point Definition
°C
Rel Hum Definition
%
Precip. Amount Definition
mm

Wind Dir Definition
10's deg

Wind Spd Definition
km/h
Visibility Definition
km
Stn Press Definition
kPa
Hmdx Definition


Wind Chill Definition


Weather Definition


00:30 4.8 3.9 94   25 26 24.1 99.81     LegendNANA
01:30 4.2 3.4 95   26 23 24.1 99.80     LegendNANA
02:30 4.3 3.6 95   27 23 24.1 99.86     Rain
03:30 3.4 2.7 95   28 24 24.1 99.90     Rain
04:30 2.6 2.1 97   28 17 24.1 99.96     Rain
05:30 1.7 1.1 96   28 16 24.1 99.99     Rain
06:30 0.2 -0.1 98   30 11 8.1 100.03     Snow
07:30 0.0 -0.2 99   31 13 3.2 100.03   -4 Snow
08:30 -0.1 -0.2 99   31 15 2.4 100.10   -5 Snow
09:30 -0.4 -0.7 98   36 12 2.0 100.15   -4 Snow
10:30 -1.0 -1.4 97   1 16 3.2 100.23   -6 Snow
11:30 -1.4 -2.0 95   1 15 3.6 100.25   -6 Snow
12:30 -2.4 -3.2 95   3 22 1.2 100.19   -9 Snow
13:30 -3.5 -4.2 94   1 21 12.9 100.19   -10 Snow
14:30 -3.8 -5.4 88   1 18 24.1 100.23   -10 Snow
15:30 -4.0 -5.5 89   36 15 24.1 100.26   -9 Snow
16:30 -4.3 -5.7 90   1 16 24.1 100.31   -10 Snow
17:30 -4.4 -5.9 89   2 12 24.1 100.29   -9 Snow
18:30 -4.6 -6.4 87   2 18 24.1 100.31   -11 Snow
19:30 -5.0 -6.8 88   2 16 24.1 100.36   -11 Snow
20:30 -5.8 -8.1 84   36 20 24.1 100.46   -13 Snow
21:30 -6.2 -8.7 83   36 19 24.1 100.52   -13 Snow
22:30 -7.0 -10.1 79   36 18 24.1 100.52   -14 LegendNANA
23:30 -7.4 -10.5 79   36 17 24.1 100.58   -14 Cloudy

Notes on Data Quality.

Legend

  • E = Estimated
  • M = Missing
  • NA = Not Available*
  • [empty] = Indicates an unobserved value
Date modified: